This demonstration page uses our WeatherBlox Daily Observations layout. Learn more.

Left ArrowRight Arrow

Hourly Observations for October 31, 2015

Temp ( °F °C ) Dew Point ( °F °C ) Humidity (%) Winds ( mph kmh ) Pressure ( in mb ) Visibility ( mi km ) Precip ( " mm )
12:53 am 00:53 Cloudy 48 8.9 37 2.8 66 66 Calm 30.16 1021 10 16 0.00 0.00
1:53 am 01:53 Clear 41 5 36 2.2 82 82 Calm 30.16 1021 10 16 0.00 0.00
2:53 am 02:53 Clear 40 4.4 37 2.8 89 89 E 3 6 30.13 1020 10 16 0.00 0.00
3:53 am 03:53 Clear 46 7.8 38 3.3 73 73 VRB 3 6 30.12 1020 10 16 0.00 0.00
4:53 am 04:53 Clear 46 7.8 37 2.8 71 71 VRB 5 7 30.11 1020 10 16 0.00 0.00
5:53 am 05:53 Clear 44 6.7 38 3.3 79 79 E 5 7 30.11 1020 10 16 0.00 0.00
6:53 am 06:53 Partly Cloudy 45 7.2 37 2.8 74 74 VRB 3 6 30.12 1020 10 16 0.00 0.00
7:53 am 07:53 Clear 45 7.2 37 2.8 74 74 VRB 6 9 30.10 1019 10 16 0.00 0.00
8:53 am 08:53 Mostly Sunny 46 7.8 37 2.8 71 71 VRB 6 9 30.08 1019 10 16 0.00 0.00
9:53 am 09:53 Cloudy 47 8.3 37 2.8 69 69 ESE 6 9 30.09 1019 10 16 0.00 0.00
10:53 am 10:53 Cloudy 48 8.9 37 2.8 66 66 VRB 3 6 30.09 1019 10 16 0.00 0.00
11:53 am 11:53 Cloudy 50 10 38 3.3 63 63 VRB 6 9 30.04 1017 10 16 0.00 0.00
12:53 pm 12:53 Cloudy 52 11.1 38 3.3 59 59 VRB 3 6 30.02 1017 10 16 0.00 0.00
1:53 pm 13:53 Mostly Sunny 56 13.3 40 4.4 55 55 S 7 11 29.99 1016 10 16 0.00 0.00
2:53 pm 14:53 Cloudy 56 13.3 40 4.4 55 55 SSE 6 9 29.94 1014 10 16 0.00 0.00
3:53 pm 15:53 Cloudy 58 14.4 41 5 53 53 VRB 6 9 29.91 1013 10 16 0.00 0.00
4:53 pm 16:53 Cloudy 58 14.4 43 6.1 58 58 VRB 5 7 29.90 1013 10 16 0.00 0.00
5:53 pm 17:53 Sunny 58 14.4 45 7.2 62 62 VRB 5 7 29.87 1012 10 16 0.00 0.00
6:53 pm 18:53 Mostly Clear 57 13.9 46 7.8 67 67 SSW 3 6 29.87 1012 10 16 0.00 0.00
7:53 pm 19:53 Cloudy 55 12.8 47 8.3 74 74 Calm 29.88 1012 10 16 0.00 0.00
8:53 pm 20:53 Cloudy 57 13.9 47 8.3 69 69 SSE 3 6 29.87 1012 10 16 0.00 0.00
9:53 pm 21:53 Cloudy with Light Rain 55 12.8 50 10 83 83 Calm 29.87 1012 10 16 0.00 0.03
10:53 pm 22:53 Cloudy with Rain 55 12.8 51 10.6 87 87 S 3 6 29.88 1012 5 8 0.02 0.51

Powered by AerisWeather